Harlan, IA

11:55 AM CDT on March 28, 2017 (GMT -0500)
Harlan Municipal

Weather History for KHNR - March, 2014

Change the Weather History Date:

Sunday, March 9, 2014

  Actual Average Record
Temperature  
Mean Temperature 44 °F -  
Max Temperature 66 °F 46 °F 74 °F (1986)
Min Temperature 21 °F 23 °F -4 °F (1984)
Degree Days  
Heating Degree Days 22    
Moisture  
Dew Point 28 °F    
Average Humidity 62    
Maximum Humidity 93    
Minimum Humidity 30    
Precipitation  
Precipitation 0.00 in - - ()
Sea Level Pressure  
Sea Level Pressure 30.00 in    
Wind  
Wind Speed 12 mph (SSW)    
Max Wind Speed 30 mph    
Max Gust Speed 39 mph    
Visibility 10 miles    
Events      
Averages and records for this station are not official NWS values.
T = Trace of Precipitation, MM = Missing Value Source: NWS Daily Summary

Daily Weather History Graph

Daily Weather History Graph

Search for Another Location

Airport or City:

Trip Planner

Search our weather history database for the weather conditions in past years. The results will help you decide how hot, cold, wet, or windy it might be!

Date:

Astronomy

Mar. 09, 2014 Rise Set
Actual Time 7:43 AM CDT 7:21 PM CDT
Civil Twilight 7:15 AM CDT 7:48 PM CDT
Nautical Twilight 6:43 AM CDT 8:21 PM CDT
Astronomical Twilight 6:11 AM CDT 8:53 PM CDT
Moon 1:11 PM CDT (3/9) 3:12 AM CDT (3/9)
Length of Visible Light 12h 33m
Length of Day
11h 38m
First Quarter, 61% of the Moon is Illuminated
Mar 9
First Quarter
Mar 16
Full
Mar 23
Last Quarter
Mar 30
New
Apr 7
First Quarter

Hourly Weather History & Observations

Time (CDT) Temp. Windchill Dew Point Humidity Pressure Visibility Wind Dir Wind Speed Gust Speed Precip Events Conditions
12:15 AM 21.2 °F 16.4 °F 19.4 °F 93% 30.27 in 10.0 mi South 3.5 mph - N/A   Clear
12:35 AM 21.2 °F 14.9 °F 19.4 °F 93% 30.28 in 10.0 mi SSW 4.6 mph - N/A   Clear
12:55 AM 23.0 °F 13.9 °F 19.4 °F 86% 30.28 in 10.0 mi SSW 8.1 mph - N/A   Clear
1:15 AM 23.0 °F 13.9 °F 19.4 °F 86% 30.27 in 10.0 mi South 8.1 mph - N/A   Clear
1:35 AM 23.0 °F 14.7 °F 19.4 °F 86% 30.28 in 10.0 mi SSW 6.9 mph - N/A   Clear
1:55 AM 23.0 °F 13.9 °F 19.4 °F 86% 30.26 in 10.0 mi South 8.1 mph - N/A   Clear
3:15 AM 23.0 °F 13.1 °F 19.4 °F 86% 30.25 in 10.0 mi SSW 9.2 mph - N/A   Clear
3:30 AM 23.0 °F 12.4 °F 19.4 °F 86% 30.24 in 10.0 mi SSW 10.4 mph - N/A   Clear
3:55 AM 23.0 °F 13.1 °F 19.4 °F 86% 30.23 in 10.0 mi South 9.2 mph - N/A   Clear
4:15 AM 23.0 °F 13.1 °F 19.4 °F 86% 30.22 in 10.0 mi South 9.2 mph - N/A   Clear
4:35 AM 23.0 °F 13.1 °F 19.4 °F 86% 30.21 in 10.0 mi South 9.2 mph - N/A   Clear
4:55 AM 23.0 °F 12.4 °F 19.4 °F 86% 30.21 in 10.0 mi SSW 10.4 mph - N/A   Clear
5:15 AM 23.0 °F 11.7 °F 19.4 °F 86% 30.20 in 10.0 mi SSW 11.5 mph - N/A   Clear
5:35 AM 23.0 °F 11.1 °F 19.4 °F 86% 30.19 in 10.0 mi South 12.7 mph - N/A   Clear
5:55 AM 23.0 °F 10.6 °F 19.4 °F 86% 30.19 in 10.0 mi South 13.8 mph - N/A   Clear
6:15 AM 24.8 °F 14.0 °F 19.4 °F 80% 30.19 in 10.0 mi SSW 11.5 mph - N/A   Clear
6:35 AM 24.8 °F 13.4 °F 19.4 °F 80% 30.17 in 10.0 mi SSW 12.7 mph - N/A   Clear
6:55 AM 24.8 °F 13.4 °F 19.4 °F 80% 30.17 in 10.0 mi South 12.7 mph - N/A   Clear
7:15 AM 24.8 °F 14.0 °F 19.4 °F 80% 30.16 in 10.0 mi South 11.5 mph - N/A   Clear
7:35 AM 24.8 °F 14.0 °F 19.4 °F 80% 30.15 in 10.0 mi SSW 11.5 mph - N/A   Clear
7:55 AM 24.8 °F 14.0 °F 19.4 °F 80% 30.15 in 10.0 mi SSW 11.5 mph - N/A   Clear
8:15 AM 24.8 °F 14.0 °F 21.2 °F 86% 30.15 in 10.0 mi SSW 11.5 mph - N/A   Clear
8:35 AM 26.6 °F 16.2 °F 21.2 °F 80% 30.14 in 10.0 mi South 11.5 mph - N/A   Clear
8:55 AM 28.4 °F 18.0 °F 23.0 °F 80% 30.12 in 10.0 mi South 12.7 mph - N/A   Clear
9:15 AM 28.4 °F 17.5 °F 23.0 °F 80% 30.11 in 10.0 mi South 13.8 mph - N/A   Clear
9:35 AM 32.0 °F 22.1 °F 24.8 °F 75% 30.10 in 10.0 mi SSW 13.8 mph - N/A   Clear
9:55 AM 35.6 °F 25.2 °F 26.6 °F 70% 30.09 in 10.0 mi SSW 18.4 mph - N/A   Clear
10:15 AM 35.6 °F 25.9 °F 28.4 °F 75% 30.07 in 10.0 mi SSW 16.1 mph - N/A   Clear
10:35 AM 37.4 °F 26.4 °F 26.6 °F 65% 30.05 in 10.0 mi SSW 23.0 mph - N/A   Clear
10:55 AM 39.2 °F 29.8 °F 28.4 °F 65% 30.04 in 10.0 mi SSW 18.4 mph - N/A   Clear
11:15 AM 41.0 °F 32.2 °F 30.2 °F 65% 30.03 in 10.0 mi SSW 18.4 mph - N/A   Clear
11:35 AM 44.6 °F 36.1 °F 30.2 °F 57% 30.02 in 10.0 mi SSW 21.9 mph - N/A   Clear
11:55 AM 46.4 °F 39.8 °F 30.2 °F 53% 30.00 in 10.0 mi SSW 16.1 mph 31.1 mph N/A   Clear
12:15 PM 50.0 °F - 30.2 °F 47% 29.98 in 10.0 mi SSW 21.9 mph 29.9 mph N/A   Clear
12:35 PM 51.8 °F - 32.0 °F 47% 29.98 in 10.0 mi SSW 17.3 mph 28.8 mph N/A   Clear
12:55 PM 53.6 °F - 33.8 °F 47% 29.97 in 10.0 mi SW 24.2 mph 31.1 mph N/A   Clear
1:15 PM 55.4 °F - 33.8 °F 44% 29.97 in 10.0 mi SW 19.6 mph 32.2 mph N/A   Clear
1:35 PM 57.2 °F - 33.8 °F 41% 29.94 in 10.0 mi SW 27.6 mph 39.1 mph N/A   Clear
1:55 PM 59.0 °F - 33.8 °F 39% 29.92 in 10.0 mi SW 29.9 mph 39.1 mph N/A   Clear
2:15 PM 60.8 °F - 33.8 °F 36% 29.91 in 10.0 mi SW 27.6 mph 39.1 mph N/A   Clear
2:35 PM 62.6 °F - 35.6 °F 37% 29.89 in 10.0 mi SW 28.8 mph 36.8 mph N/A   Clear
2:55 PM 62.6 °F - 33.8 °F 34% 29.88 in 10.0 mi SW 28.8 mph 34.5 mph N/A   Clear
3:15 PM 62.6 °F - 35.6 °F 37% 29.87 in 10.0 mi SW 24.2 mph 35.7 mph N/A   Clear
3:35 PM 64.4 °F - 35.6 °F 34% 29.86 in 10.0 mi SW 25.3 mph 32.2 mph N/A   Clear
3:55 PM 64.4 °F - 35.6 °F 34% 29.85 in 10.0 mi SW 25.3 mph 36.8 mph N/A   Clear
4:15 PM 66.2 °F - 33.8 °F 30% 29.85 in 10.0 mi SW 21.9 mph 29.9 mph N/A   Clear
4:35 PM 66.2 °F - 35.6 °F 32% 29.85 in 10.0 mi SW 19.6 mph 28.8 mph N/A   Clear
4:55 PM 66.2 °F - 35.6 °F 32% 29.84 in 10.0 mi SW 21.9 mph 28.8 mph N/A   Clear
5:15 PM 66.2 °F - 35.6 °F 32% 29.84 in 10.0 mi SW 18.4 mph 25.3 mph N/A   Clear
5:35 PM 62.6 °F - 35.6 °F 37% 29.83 in 10.0 mi SW 17.3 mph 24.2 mph N/A   Clear
5:55 PM 60.8 °F - 35.6 °F 39% 29.84 in 10.0 mi SSW 11.5 mph - N/A   Clear
6:15 PM 60.8 °F - 35.6 °F 39% 29.84 in 10.0 mi SW 9.2 mph - N/A   Clear
6:35 PM 57.2 °F - 35.6 °F 44% 29.83 in 10.0 mi SSW 10.4 mph - N/A   Clear
6:55 PM 57.2 °F - 35.6 °F 44% 29.83 in 10.0 mi SW 10.4 mph - N/A   Clear
7:15 PM 53.6 °F - 35.6 °F 51% 29.84 in 10.0 mi SW 10.4 mph - N/A   Clear
7:35 PM 51.8 °F - 33.8 °F 50% 29.84 in 10.0 mi SW 8.1 mph - N/A   Clear
7:55 PM 51.8 °F - 33.8 °F 50% 29.84 in 10.0 mi SW 9.2 mph - N/A   Clear
8:15 PM 51.8 °F - 33.8 °F 50% 29.83 in 10.0 mi SW 9.2 mph - N/A   Clear
8:35 PM 50.0 °F - 33.8 °F 54% 29.83 in 10.0 mi SW 8.1 mph - N/A   Clear
8:55 PM 48.2 °F - 32.0 °F 54% 29.84 in 10.0 mi SW 9.2 mph - N/A   Clear
9:15 PM 50.0 °F - 32.0 °F 50% 29.84 in 10.0 mi SSW 5.8 mph - N/A   Clear
9:35 PM 50.0 °F - 32.0 °F 50% 29.84 in 10.0 mi SSW 4.6 mph - N/A   Clear
9:55 PM 50.0 °F - 32.0 °F 50% 29.84 in 10.0 mi South 4.6 mph - N/A   Clear
10:15 PM 48.2 °F - 32.0 °F 54% 29.85 in 10.0 mi South 4.6 mph - N/A   Clear
10:35 PM 48.2 °F - 32.0 °F 54% 29.85 in 10.0 mi South 6.9 mph - N/A   Clear
10:55 PM 46.4 °F 44.3 °F 32.0 °F 57% 29.84 in 10.0 mi South 4.6 mph - N/A   Clear
11:15 PM 46.4 °F 42.9 °F 30.2 °F 53% 29.84 in 10.0 mi South 6.9 mph - N/A   Clear
11:35 PM 44.6 °F 42.2 °F 30.2 °F 57% 29.84 in 10.0 mi South 4.6 mph - N/A   Clear
11:55 PM 42.8 °F 38.6 °F 30.2 °F 61% 29.84 in 10.0 mi SSW 6.9 mph - N/A   Clear
12:15 AM 42.8 °F 39.3 °F 30.2 °F 61% 29.83 in 10.0 mi SSW 5.8 mph - N/A   Clear
12:35 AM 42.8 °F 38.0 °F 32.0 °F 66% 29.82 in 10.0 mi SSW 8.1 mph - N/A   Clear
12:55 AM 42.8 °F 38.0 °F 32.0 °F 66% 29.82 in 10.0 mi South 8.1 mph - N/A   Clear